Regional Weather Roundup
Issued by NWS

Home | Current Version | Previous Version | Graphics & Text | Print | Product List | Glossary On
Versions: 1 2 3 4 5 6 7 8 9 10 11 12 13 14 15 16 17 18 19 20 21 22 23 24 25 26 27 28 29 30 31 32 33 34 35 36 37 38 39 40 41 42 43 44 45 46 47 48 49 50
000
ASUS43 KFSD 292102
RWRSD

WEATHER ROUNDUP FOR SOUTH DAKOTA
NATIONAL WEATHER SERVICE SIOUX FALLS SD
400 PM CDT THU SEP 29 2016

NOTE: "FAIR" INDICATES FEW OR NO CLOUDS BELOW 12,000 FEET WITH NO
SIGNIFICANT WEATHER AND/OR OBSTRUCTIONS TO VISIBILITY.


SDZ001>005-009-010-012>017-292200-
NORTHWEST AND NORTH CENTRAL SOUTH DAKOTA

CITY           SKY/WX    TMP DP  RH WIND       PRES   REMARKS
BUFFALO          N/A     80  44  27 SE24G37   30.10F
FAITH            N/A     77  42  28 SE20G30   30.22F
MOBRIDGE       SUNNY     73  40  30 SE20G25   30.27F
$$

SDZ012>016-024>037-041>051-057-063-072>074-292200-
SOUTHWEST AND SOUTH CENTRAL SOUTH DAKOTA

CITY           SKY/WX    TMP DP  RH WIND       PRES   REMARKS
RAPID CTY ARPT SUNNY     81  44  27 S22G29    30.20F
PIERRE         SUNNY     73  41  31 SE15G24   30.27F
CUSTER         SUNNY     71  42  35 S8G17     30.33S
ELLSWORTH AFB  SUNNY     80  45  28 S22G28    30.19F
PHILIP         SUNNY     80  42  25 SE13G24   30.22F
PINE RIDGE     SUNNY     81  42  25 S13G23    30.22F
WINNER         FAIR      74  42  31 SE16      30.31F
$$

SDZ004>011-016>023-039-040-292200-
NORTHEAST SOUTH DAKOTA

CITY           SKY/WX    TMP DP  RH WIND       PRES   REMARKS
ABERDEEN       SUNNY     70  45  40 S10       30.36F
WATERTOWN      SUNNY     65  47  52 SE10      30.39F
SISSETON         N/A     68  45  43 SE9       30.39F
$$

SDZ017-020-022-023-036>040-048>070-292200-
SOUTHEAST SOUTH DAKOTA

CITY           SKY/WX    TMP DP  RH WIND       PRES   REMARKS
SIOUX FALLS    MOSUNNY   68  49  50 VRB3      30.38F
HURON          SUNNY     69  47  45 S9        30.35F
CHAMBERLAIN    SUNNY     71  46  41 SE13G18   30.33F
MITCHELL       SUNNY     70  46  42 S8        30.37F
YANKTON        SUNNY     66  48  52 CALM      30.35F
$$

ABBREVIATIONS USED IN REMARKS
   TC - TEMPERATURE IN CELSIUS
  WCI - WIND CHILL INDEX
   HX - HEAT INDEX
  VSB - VISIBILITY





USA.gov is the U.S. government's official web portal to all federal, state and local government web resources and services.